QPF
0.00 0.00 0.00 0.00 0.00 0.00 0.00 0.00 0.00 0.00 0.00 0.00 0.00 0.00 0.00 0.00 0.00 0.00 0.00 0.00 0.00 0.00 0.00 0.00 0.01 0.01 0.01 0.01 0.01 0.02 0.01 0.02 0.02 0.03 0.04 0.04 0.05 0.06 0.06 0.03 0.01 0.03 0.04 0.05
0.00 0.00 0.00 0.00 0.00 0.00 0.00 0.00 0.00 0.00 0.00 0.00 0.00 0.00 0.00 0.00 0.00 0.00 0.00 0.00 0.00 0.00 0.00 0.00 0.00 0.00 0.01 0.01 0.01 0.02 0.02 0.03 0.05 0.07 0.09 0.08 0.08 0.08 0.08 0.07 0.04 0.04 0.05 0.05
0.00 0.00 0.00 0.00 0.00 0.00 0.00 0.00 0.00 0.00 0.00 0.00 0.00 0.00 0.00 0.00 0.00 0.00 0.00 0.00 0.00 0.00 0.00 0.00 0.00 0.00 0.00 0.00 0.01 0.02 0.02 0.03 0.04 0.06 0.11 0.13 0.09 0.05 0.04 0.06 0.05 0.04 0.05 0.04
0.00 0.00 0.00 0.00 0.00 0.00 0.00 0.00 0.00 0.00 0.00 0.00 0.00 0.00 0.00 0.00 0.00 0.00 0.00 0.00 0.00 0.00 0.00 0.00 0.00 0.00 0.00 0.00 0.00 0.01 0.02 0.03 0.03 0.05 0.08 0.11 0.09 0.05 0.04 0.04 0.05 0.05 0.04 0.03
0.00 0.00 0.00 0.00 0.00 0.00 0.00 0.00 0.00 0.00 0.00 0.00 0.00 0.00 0.00 0.00 0.00 0.00 0.00 0.00 0.00 0.00 0.00 0.00 0.00 0.00 0.00 0.00 0.01 0.02 0.03 0.04 0.04 0.04 0.05 0.06 0.05 0.07 0.06 0.05 0.05 0.05 0.03 0.03
0.00 0.00 0.00 0.00 0.00 0.00 0.00 0.00 0.00 0.00 0.00 0.00 0.00 0.00 0.00 0.00 0.00 0.00 0.00 0.00 0.00 0.00 0.00 0.00 0.00 0.00 0.00 0.00 0.01 0.02 0.03 0.03 0.03 0.03 0.04 0.05 0.07 0.09 0.10 0.09 0.07 0.05 0.04 0.03
0.00 0.00 0.00 0.00 0.00 0.00 0.00 0.00 0.00 0.00 0.00 0.00 0.00 0.00 0.00 0.00 0.00 0.00 0.00 0.00 0.00 0.00 0.00 0.00 0.00 0.00 0.00 0.00 0.01 0.01 0.02 0.02 0.02 0.03 0.05 0.07 0.08 0.12 0.15 0.12 0.10 0.07 0.04 0.03
0.00 0.00 0.00 0.00 0.00 0.00 0.00 0.00 0.00 0.00 0.00 0.00 0.00 0.00 0.00 0.00 0.00 0.00 0.00 0.00 0.00 0.00 0.00 0.01 0.00 0.00 0.00 0.00 0.00 0.01 0.01 0.02 0.02 0.04 0.06 0.09 0.09 0.11 0.14 0.11 0.07 0.06 0.04 0.04
0.00 0.00 0.00 0.00 0.00 0.00 0.00 0.00 0.00 0.00 0.00 0.00 0.00 0.00 0.00 0.00 0.00 0.00 0.00 0.00 0.00 0.00 0.00 0.01 0.01 0.00 0.00 0.00 0.00 0.01 0.01 0.01 0.02 0.03 0.06 0.07 0.07 0.05 0.07 0.08 0.05 0.04 0.04 0.04
0.00 0.00 0.00 0.00 0.00 0.00 0.00 0.00 0.00 0.00 0.00 0.00 0.00 0.00 0.00 0.00 0.00 0.00 0.00 0.00 0.00 0.00 0.00 0.01 0.01 0.01 0.00 0.00 0.00 0.00 0.00 0.01 0.01 0.02 0.03 0.03 0.05 0.04 0.05 0.06 0.04 0.05 0.04 0.04
0.00 0.00 0.00 0.00 0.00 0.00 0.00 0.00 0.00 0.00 0.00 0.00 0.00 0.00 0.00 0.00 0.00 0.00 0.00 0.00 0.00 0.00 0.00 0.00 0.00 0.01 0.01 0.00 0.00 0.00 0.00 0.01 0.01 0.01 0.02 0.02 0.03 0.04 0.05 0.04 0.04 0.05 0.06 0.06
0.00 0.00 0.00 0.00 0.00 0.00 0.00 0.00 0.00 0.00 0.00 0.00 0.00 0.00 0.00 0.00 0.00 0.00 0.00 0.00 0.00 0.00 0.00 0.00 0.00 0.00 0.00 0.00 0.00 0.00 0.00 0.00 0.00 0.01 0.02 0.02 0.03 0.03 0.04 0.05 0.04 0.04 0.05 0.05
0.00 0.00 0.00 0.00 0.00 0.00 0.00 0.00 0.00 0.00 0.00 0.00 0.00 0.00 0.00 0.00 0.00 0.00 0.00 0.00 0.00 0.00 0.00 0.00 0.00 0.00 0.00 0.00 0.00 0.00 0.00 0.00 0.00 0.01 0.02 0.02 0.03 0.03 0.03 0.04 0.03 0.03 0.03 0.04
0.00 0.00 0.00 0.00 0.00 0.00 0.00 0.00 0.00 0.00 0.00 0.00 0.00 0.00 0.00 0.00 0.00 0.00 0.00 0.00 0.00 0.00 0.00 0.00 0.00 0.00 0.00 0.00 0.00 0.00 0.00 0.00 0.01 0.01 0.02 0.02 0.02 0.03 0.03 0.04 0.03 0.03 0.02 0.03
0.00 0.00 0.00 0.00 0.00 0.00 0.00 0.00 0.00 0.00 0.00 0.00 0.00 0.00 0.00 0.00 0.00 0.00 0.00 0.00 0.00 0.00 0.00 0.00 0.00 0.00 0.00 0.00 0.00 0.00 0.00 0.01 0.01 0.01 0.01 0.01 0.02 0.02 0.02 0.02 0.03 0.04 0.03 0.03
0.00 0.00 0.00 0.00 0.00 0.00 0.00 0.00 0.00 0.00 0.00 0.00 0.00 0.00 0.00 0.00 0.00 0.00 0.00 0.00 0.00 0.00 0.01 0.01 0.01 0.00 0.00 0.00 0.00 0.00 0.00 0.00 0.00 0.01 0.01 0.01 0.02 0.02 0.01 0.02 0.03 0.03 0.03 0.03
0.00 0.00 0.00 0.00 0.00 0.00 0.00 0.00 0.00 0.00 0.00 0.00 0.00 0.00 0.00 0.00 0.00 0.00 0.00 0.01 0.01 0.01 0.01 0.01 0.01 0.01 0.01 0.01 0.00 0.00 0.00 0.00 0.01 0.01 0.01 0.01 0.01 0.01 0.01 0.01 0.02 0.03 0.03 0.03
0.00 0.00 0.00 0.00 0.00 0.01 0.00 0.00 0.00 0.00 0.00 0.00 0.00 0.00 0.00 0.00 0.00 0.01 0.01 0.01 0.01 0.01 0.01 0.01 0.01 0.01 0.02 0.02 0.01 0.01 0.01 0.01 0.01 0.01 0.01 0.01 0.01 0.01 0.02 0.02 0.02 0.04 0.04 0.04
0.00 0.00 0.00 0.00 0.01 0.00 0.01 0.01 0.01 0.00 0.00 0.00 0.00 0.00 0.00 0.00 0.00 0.01 0.01 0.01 0.01 0.01 0.01 0.01 0.01 0.01 0.01 0.01 0.01 0.01 0.01 0.01 0.01 0.01 0.01 0.01 0.01 0.01 0.02 0.02 0.03 0.05 0.05 0.04
0.00 0.00 0.00 0.00 0.00 0.01 0.01 0.01 0.00 0.01 0.01 0.01 0.00 0.00 0.01 0.01 0.01 0.01 0.02 0.02 0.01 0.01 0.01 0.01 0.01 0.00 0.00 0.01 0.01 0.01 0.01 0.01 0.02 0.02 0.01 0.01 0.02 0.01 0.02 0.03 0.04 0.05 0.06 0.07
0.01 0.00 0.00 0.00 0.00 0.01 0.00 0.00 0.01 0.02 0.01 0.01 0.01 0.01 0.01 0.02 0.02 0.02 0.03 0.02 0.02 0.01 0.01 0.01 0.01 0.01 0.01 0.01 0.01 0.02 0.02 0.02 0.02 0.01 0.01 0.01 0.01 0.01 0.02 0.05 0.06 0.08 0.09 0.10
0.01 0.01 0.01 0.00 0.00 0.00 0.00 0.01 0.02 0.01 0.01 0.01 0.01 0.01 0.02 0.02 0.02 0.02 0.02 0.02 0.01 0.01 0.01 0.02 0.02 0.01 0.02 0.02 0.02 0.02 0.02 0.01 0.01 0.01 0.01 0.01 0.01 0.02 0.02 0.03 0.04 0.08 0.12 0.11
0.01 0.01 0.01 0.01 0.01 0.01 0.01 0.01 0.01 0.01 0.01 0.01 0.01 0.01 0.01 0.01 0.01 0.01 0.02 0.02 0.01 0.01 0.02 0.02 0.02 0.02 0.02 0.03 0.03 0.03 0.03 0.03 0.02 0.02 0.02 0.02 0.02 0.01 0.01 0.02 0.02 0.03 0.05 0.07
0.01 0.00 0.01 0.01 0.00 0.00 0.01 0.01 0.02 0.01 0.00 0.00 0.01 0.01 0.00 0.01 0.00 0.00 0.01 0.02 0.02 0.01 0.02 0.02 0.02 0.02 0.02 0.02 0.04 0.04 0.03 0.03 0.03 0.03 0.03 0.01 0.01 0.01 0.01 0.01 0.01 0.02 0.03 0.05
0.01 0.01 0.01 0.02 0.01 0.01 0.02 0.02 0.01 0.01 0.01 0.01 0.01 0.01 0.00 0.00 0.00 0.00 0.01 0.02 0.03 0.03 0.02 0.02 0.02 0.02 0.01 0.03 0.03 0.03 0.03 0.04 0.03 0.02 0.02 0.02 0.02 0.02 0.02 0.02 0.02 0.02 0.04 0.05
0.01 0.01 0.02 0.02 0.01 0.01 0.01 0.01 0.02 0.01 0.01 0.01 0.01 0.01 0.01 0.00 0.01 0.01 0.01 0.02 0.03 0.04 0.03 0.03 0.03 0.02 0.02 0.02 0.03 0.03 0.03 0.04 0.03 0.03 0.03 0.03 0.03 0.03 0.03 0.02 0.02 0.03 0.04 0.04
MSLP
1010.39 1010.67 1010.87 1011.02 1011.12 1011.19 1011.25 1011.29 1011.30 1011.23 1011.07 1010.79 1010.39 1009.89 1009.34 1008.79 1008.31 1007.95 1007.74 1007.71 1007.85 1008.14 1008.53 1009.00 1009.52 1010.06 1010.60 1011.14 1011.67 1012.19 1012.67 1013.11 1013.48 1013.78 1014.00 1014.16 1014.26 1014.33 1014.40 1014.49 1014.62 1014.80 1015.02 1015.28
1010.62 1010.84 1010.99 1011.10 1011.19 1011.29 1011.41 1011.52 1011.60 1011.60 1011.49 1011.22 1010.80 1010.23 1009.58 1008.91 1008.29 1007.78 1007.44 1007.29 1007.34 1007.55 1007.91 1008.36 1008.88 1009.43 1010.00 1010.57 1011.15 1011.71 1012.25 1012.76 1013.20 1013.57 1013.85 1014.05 1014.17 1014.24 1014.29 1014.34 1014.43 1014.56 1014.75 1015.00
1010.76 1010.90 1011.00 1011.08 1011.19 1011.33 1011.52 1011.71 1011.88 1011.95 1011.87 1011.61 1011.16 1010.52 1009.76 1008.96 1008.20 1007.55 1007.08 1006.83 1006.79 1006.95 1007.27 1007.71 1008.23 1008.79 1009.37 1009.97 1010.58 1011.18 1011.78 1012.34 1012.86 1013.30 1013.65 1013.90 1014.07 1014.15 1014.19 1014.22 1014.26 1014.35 1014.50 1014.72
1010.78 1010.86 1010.92 1011.00 1011.12 1011.32 1011.58 1011.87 1012.12 1012.26 1012.22 1011.96 1011.46 1010.75 1009.88 1008.95 1008.05 1007.28 1006.70 1006.36 1006.26 1006.37 1006.68 1007.11 1007.63 1008.19 1008.78 1009.39 1010.01 1010.63 1011.26 1011.87 1012.44 1012.95 1013.37 1013.68 1013.89 1014.01 1014.06 1014.07 1014.09 1014.14 1014.26 1014.44
1010.72 1010.75 1010.78 1010.86 1011.02 1011.28 1011.62 1011.99 1012.32 1012.52 1012.51 1012.24 1011.70 1010.92 1009.96 1008.92 1007.91 1007.03 1006.37 1005.96 1005.81 1005.90 1006.19 1006.62 1007.14 1007.70 1008.28 1008.87 1009.48 1010.09 1010.72 1011.35 1011.95 1012.50 1012.97 1013.34 1013.60 1013.76 1013.83 1013.85 1013.86 1013.89 1013.97 1014.12
1010.59 1010.59 1010.61 1010.70 1010.90 1011.22 1011.63 1012.07 1012.46 1012.71 1012.72 1012.45 1011.87 1011.03 1010.00 1008.88 1007.79 1006.85 1006.13 1005.68 1005.52 1005.60 1005.89 1006.32 1006.83 1007.37 1007.92 1008.47 1009.03 1009.60 1010.19 1010.79 1011.38 1011.94 1012.44 1012.85 1013.15 1013.35 1013.45 1013.49 1013.51 1013.54 1013.61 1013.75
1010.41 1010.40 1010.43 1010.54 1010.77 1011.13 1011.59 1012.09 1012.52 1012.80 1012.83 1012.55 1011.96 1011.09 1010.02 1008.86 1007.74 1006.77 1006.04 1005.58 1005.42 1005.51 1005.81 1006.24 1006.73 1007.24 1007.74 1008.22 1008.70 1009.18 1009.69 1010.22 1010.76 1011.29 1011.78 1012.20 1012.53 1012.76 1012.90 1012.97 1013.02 1013.06 1013.14 1013.28
1010.21 1010.21 1010.24 1010.37 1010.62 1011.00 1011.49 1012.01 1012.46 1012.75 1012.79 1012.53 1011.95 1011.09 1010.02 1008.87 1007.77 1006.82 1006.10 1005.67 1005.53 1005.65 1005.95 1006.37 1006.84 1007.31 1007.74 1008.13 1008.50 1008.87 1009.26 1009.68 1010.12 1010.58 1011.03 1011.43 1011.76 1012.01 1012.18 1012.30 1012.38 1012.46 1012.56 1012.72
1010.00 1010.01 1010.05 1010.18 1010.43 1010.81 1011.29 1011.80 1012.25 1012.55 1012.60 1012.36 1011.81 1011.00 1009.99 1008.90 1007.86 1006.96 1006.31 1005.93 1005.83 1005.97 1006.29 1006.70 1007.14 1007.54 1007.89 1008.18 1008.43 1008.66 1008.91 1009.20 1009.52 1009.88 1010.24 1010.60 1010.91 1011.16 1011.36 1011.51 1011.63 1011.75 1011.90 1012.08
1009.78 1009.79 1009.83 1009.95 1010.18 1010.53 1010.97 1011.45 1011.88 1012.16 1012.23 1012.02 1011.54 1010.80 1009.89 1008.91 1007.97 1007.18 1006.61 1006.30 1006.25 1006.42 1006.74 1007.14 1007.54 1007.89 1008.16 1008.35 1008.48 1008.58 1008.68 1008.82 1009.01 1009.25 1009.52 1009.80 1010.07 1010.31 1010.51 1010.68 1010.84 1011.00 1011.19 1011.42
1009.55 1009.56 1009.59 1009.68 1009.86 1010.15 1010.53 1010.95 1011.34 1011.61 1011.68 1011.53 1011.12 1010.49 1009.70 1008.86 1008.05 1007.38 1006.91 1006.68 1006.69 1006.88 1007.21 1007.60 1007.97 1008.27 1008.47 1008.58 1008.61 1008.59 1008.58 1008.59 1008.65 1008.77 1008.94 1009.14 1009.35 1009.55 1009.74 1009.92 1010.10 1010.29 1010.51 1010.77
1009.31 1009.32 1009.32 1009.37 1009.49 1009.71 1010.01 1010.35 1010.68 1010.92 1011.00 1010.89 1010.56 1010.05 1009.41 1008.71 1008.05 1007.51 1007.15 1007.00 1007.06 1007.28 1007.62 1007.99 1008.34 1008.61 1008.77 1008.83 1008.79 1008.70 1008.60 1008.51 1008.47 1008.49 1008.56 1008.68 1008.82 1008.98 1009.14 1009.30 1009.48 1009.68 1009.91 1010.18
1009.07 1009.06 1009.04 1009.03 1009.09 1009.23 1009.44 1009.70 1009.96 1010.15 1010.23 1010.15 1009.90 1009.50 1008.99 1008.44 1007.92 1007.50 1007.25 1007.18 1007.29 1007.54 1007.89 1008.27 1008.61 1008.87 1009.02 1009.07 1009.01 1008.89 1008.74 1008.60 1008.49 1008.43 1008.43 1008.47 1008.54 1008.64 1008.76 1008.89 1009.04 1009.22 1009.44 1009.71
1008.84 1008.82 1008.77 1008.72 1008.72 1008.77 1008.90 1009.07 1009.24 1009.38 1009.44 1009.38 1009.18 1008.87 1008.47 1008.04 1007.64 1007.34 1007.18 1007.19 1007.34 1007.63 1008.00 1008.40 1008.76 1009.04 1009.22 1009.29 1009.25 1009.15 1009.00 1008.84 1008.70 1008.60 1008.54 1008.51 1008.53 1008.57 1008.63 1008.71 1008.82 1008.96 1009.15 1009.38
1008.65 1008.61 1008.54 1008.47 1008.41 1008.40 1008.44 1008.52 1008.61 1008.68 1008.69 1008.61 1008.44 1008.18 1007.86 1007.53 1007.24 1007.04 1006.96 1007.04 1007.25 1007.58 1007.98 1008.41 1008.81 1009.14 1009.38 1009.50 1009.53 1009.47 1009.36 1009.22 1009.08 1008.96 1008.86 1008.79 1008.75 1008.73 1008.73 1008.76 1008.82 1008.91 1009.05 1009.23
1008.51 1008.48 1008.40 1008.31 1008.22 1008.15 1008.12 1008.11 1008.11 1008.09 1008.04 1007.92 1007.74 1007.50 1007.23 1006.97 1006.76 1006.64 1006.64 1006.78 1007.05 1007.43 1007.89 1008.37 1008.83 1009.23 1009.54 1009.74 1009.85 1009.86 1009.81 1009.71 1009.59 1009.47 1009.35 1009.25 1009.17 1009.10 1009.05 1009.03 1009.03 1009.07 1009.15 1009.28
1008.46 1008.43 1008.36 1008.27 1008.16 1008.06 1007.96 1007.87 1007.78 1007.67 1007.53 1007.35 1007.13 1006.89 1006.64 1006.42 1006.26 1006.21 1006.29 1006.49 1006.83 1007.28 1007.80 1008.34 1008.87 1009.35 1009.75 1010.04 1010.23 1010.32 1010.33 1010.29 1010.20 1010.09 1009.98 1009.86 1009.75 1009.65 1009.56 1009.49 1009.45 1009.44 1009.48 1009.56
1008.50 1008.49 1008.43 1008.35 1008.24 1008.11 1007.96 1007.80 1007.62 1007.42 1007.19 1006.94 1006.67 1006.40 1006.15 1005.95 1005.85 1005.86 1006.00 1006.28 1006.69 1007.20 1007.79 1008.41 1009.01 1009.56 1010.04 1010.41 1010.68 1010.84 1010.92 1010.92 1010.87 1010.79 1010.68 1010.57 1010.45 1010.33 1010.23 1010.14 1010.08 1010.05 1010.06 1010.11
1008.63 1008.63 1008.60 1008.53 1008.42 1008.28 1008.10 1007.88 1007.63 1007.35 1007.04 1006.72 1006.39 1006.09 1005.84 1005.66 1005.60 1005.66 1005.87 1006.22 1006.70 1007.28 1007.93 1008.61 1009.27 1009.89 1010.42 1010.85 1011.18 1011.41 1011.54 1011.59 1011.58 1011.52 1011.44 1011.35 1011.24 1011.14 1011.05 1010.97 1010.92 1010.89 1010.90 1010.95
1008.84 1008.84 1008.82 1008.76 1008.67 1008.52 1008.32 1008.07 1007.77 1007.44 1007.07 1006.70 1006.33 1006.01 1005.76 1005.61 1005.58 1005.69 1005.96 1006.37 1006.91 1007.54 1008.24 1008.96 1009.66 1010.32 1010.89 1011.36 1011.73 1012.00 1012.17 1012.26 1012.29 1012.28 1012.24 1012.19 1012.12 1012.06 1012.01 1011.97 1011.95 1011.95 1011.99 1012.06
1009.10 1009.08 1009.06 1009.01 1008.92 1008.78 1008.59 1008.33 1008.02 1007.66 1007.27 1006.88 1006.51 1006.18 1005.95 1005.82 1005.84 1006.00 1006.31 1006.76 1007.33 1008.00 1008.72 1009.45 1010.16 1010.82 1011.40 1011.89 1012.28 1012.58 1012.79 1012.92 1013.01 1013.05 1013.07 1013.08 1013.08 1013.08 1013.10 1013.12 1013.16 1013.22 1013.30 1013.41
1009.35 1009.31 1009.27 1009.22 1009.15 1009.03 1008.86 1008.63 1008.33 1007.99 1007.63 1007.25 1006.91 1006.61 1006.41 1006.32 1006.37 1006.57 1006.91 1007.38 1007.96 1008.62 1009.33 1010.05 1010.74 1011.37 1011.94 1012.43 1012.82 1013.14 1013.38 1013.57 1013.71 1013.82 1013.92 1014.01 1014.10 1014.19 1014.29 1014.39 1014.51 1014.64 1014.78 1014.93
1009.55 1009.46 1009.40 1009.35 1009.30 1009.21 1009.09 1008.91 1008.68 1008.40 1008.10 1007.79 1007.50 1007.27 1007.12 1007.08 1007.16 1007.38 1007.73 1008.19 1008.75 1009.38 1010.04 1010.71 1011.35 1011.94 1012.48 1012.95 1013.34 1013.68 1013.96 1014.20 1014.41 1014.60 1014.78 1014.96 1015.15 1015.34 1015.53 1015.73 1015.93 1016.13 1016.33 1016.53
1009.66 1009.52 1009.43 1009.38 1009.35 1009.32 1009.26 1009.17 1009.03 1008.85 1008.65 1008.43 1008.24 1008.09 1008.01 1008.02 1008.14 1008.37 1008.71 1009.14 1009.65 1010.22 1010.81 1011.40 1011.98 1012.51 1013.01 1013.45 1013.84 1014.20 1014.52 1014.81 1015.09 1015.37 1015.64 1015.92 1016.20 1016.48 1016.77 1017.05 1017.33 1017.60 1017.86 1018.10
1009.64 1009.45 1009.34 1009.29 1009.30 1009.33 1009.35 1009.36 1009.34 1009.29 1009.22 1009.13 1009.04 1008.99 1008.99 1009.06 1009.21 1009.44 1009.76 1010.15 1010.60 1011.10 1011.60 1012.12 1012.61 1013.09 1013.54 1013.96 1014.35 1014.72 1015.08 1015.43 1015.78 1016.13 1016.49 1016.85 1017.21 1017.58 1017.93 1018.29 1018.63 1018.95 1019.26 1019.54
1009.48 1009.25 1009.13 1009.10 1009.15 1009.24 1009.37 1009.49 1009.60 1009.68 1009.74 1009.79 1009.83 1009.88 1009.96 1010.09 1010.27 1010.51 1010.81 1011.16 1011.55 1011.97 1012.40 1012.84 1013.27 1013.69 1014.10 1014.50 1014.89 1015.28 1015.67 1016.07 1016.47 1016.88 1017.30 1017.72 1018.14 1018.55 1018.97 1019.37 1019.75 1020.12 1020.46 1020.76
Thickness
5777 5776 5778 5788 5797 5800 5801 5800 5797 5802 5809 5807 5807 5810 5817 5823 5822 5822 5822 5821 5817 5816 5818 5815 5810 5807 5801 5796 5791 5786 5781 5776 5772 5768 5765 5761 5759 5759 5757 5756 5753 5750 5749 5748
5761 5767 5784 5791 5790 5788 5789 5787 5791 5793 5801 5802 5802 5805 5817 5821 5821 5825 5823 5822 5821 5819 5817 5814 5811 5807 5803 5797 5792 5788 5783 5779 5774 5771 5767 5764 5762 5760 5758 5757 5753 5751 5749 5748
5760 5772 5780 5774 5772 5774 5780 5783 5786 5785 5791 5799 5795 5795 5807 5818 5823 5825 5826 5826 5826 5823 5819 5815 5812 5809 5805 5801 5796 5793 5787 5782 5777 5773 5768 5764 5760 5758 5757 5755 5754 5752 5750 5749
5759 5766 5765 5765 5768 5772 5769 5785 5783 5780 5777 5784 5788 5783 5803 5813 5814 5819 5823 5826 5827 5827 5825 5821 5815 5811 5808 5806 5801 5796 5790 5784 5779 5774 5770 5765 5761 5759 5758 5757 5756 5754 5751 5750
5750 5758 5757 5758 5768 5771 5774 5781 5778 5777 5776 5777 5782 5779 5801 5810 5806 5816 5824 5826 5829 5829 5827 5824 5821 5817 5813 5810 5805 5798 5791 5785 5781 5776 5772 5766 5763 5762 5761 5759 5756 5754 5753 5751
5754 5761 5763 5765 5771 5771 5772 5769 5768 5771 5773 5757 5776 5774 5787 5808 5810 5819 5825 5827 5828 5829 5828 5826 5825 5820 5815 5811 5807 5801 5793 5787 5783 5778 5774 5768 5764 5761 5758 5756 5755 5754 5755 5754
5734 5746 5759 5766 5757 5760 5763 5755 5744 5742 5746 5756 5779 5772 5788 5812 5819 5820 5821 5825 5827 5829 5827 5825 5822 5819 5815 5811 5807 5802 5795 5788 5784 5780 5775 5771 5767 5763 5760 5757 5756 5754 5756 5756
5724 5730 5748 5757 5759 5754 5757 5760 5751 5743 5748 5763 5764 5766 5794 5813 5817 5820 5822 5824 5826 5827 5827 5825 5824 5821 5817 5813 5808 5803 5797 5791 5786 5782 5778 5775 5770 5767 5765 5761 5760 5758 5758 5759
5730 5732 5750 5757 5764 5763 5751 5757 5774 5761 5760 5758 5766 5775 5792 5807 5808 5813 5816 5819 5821 5824 5825 5824 5824 5822 5819 5815 5810 5806 5799 5793 5789 5785 5781 5776 5773 5770 5767 5764 5761 5761 5759 5760
5736 5726 5737 5749 5754 5757 5763 5763 5755 5750 5740 5742 5757 5763 5779 5790 5798 5806 5810 5813 5816 5820 5822 5822 5822 5820 5819 5816 5813 5808 5802 5796 5792 5788 5784 5780 5775 5772 5768 5765 5763 5762 5761 5759
5735 5724 5727 5735 5735 5741 5745 5750 5753 5755 5757 5750 5748 5764 5794 5794 5799 5802 5806 5810 5812 5815 5818 5818 5819 5819 5817 5815 5812 5806 5802 5796 5792 5789 5785 5781 5777 5774 5770 5767 5765 5763 5761 5759
5728 5727 5722 5730 5745 5754 5751 5751 5750 5740 5740 5750 5758 5767 5794 5795 5798 5800 5803 5806 5809 5811 5814 5815 5815 5814 5812 5810 5808 5805 5801 5797 5794 5790 5786 5782 5778 5775 5771 5769 5766 5764 5761 5759
5721 5716 5706 5711 5722 5735 5739 5747 5751 5752 5749 5747 5748 5763 5788 5791 5793 5797 5798 5800 5803 5804 5807 5809 5809 5807 5807 5806 5804 5802 5800 5797 5794 5790 5785 5781 5778 5774 5772 5769 5766 5764 5762 5759
5718 5713 5714 5715 5724 5733 5730 5737 5744 5744 5739 5743 5752 5765 5776 5782 5785 5789 5791 5794 5797 5798 5799 5801 5800 5800 5800 5801 5800 5799 5797 5795 5792 5787 5783 5779 5777 5774 5772 5769 5766 5764 5761 5759
5711 5707 5713 5723 5731 5732 5731 5733 5737 5738 5746 5747 5756 5763 5771 5777 5780 5783 5785 5788 5789 5790 5792 5792 5793 5794 5795 5795 5795 5795 5793 5791 5789 5785 5781 5777 5775 5773 5771 5768 5766 5764 5761 5759
5702 5701 5706 5708 5719 5723 5723 5730 5735 5738 5745 5749 5755 5760 5773 5777 5778 5777 5779 5781 5781 5784 5786 5788 5789 5789 5789 5789 5790 5790 5788 5787 5785 5781 5778 5775 5773 5771 5769 5767 5764 5762 5759 5757
5696 5693 5695 5701 5712 5712 5710 5727 5733 5737 5746 5749 5747 5757 5765 5765 5766 5768 5771 5774 5776 5778 5781 5782 5784 5785 5785 5785 5786 5785 5785 5783 5780 5777 5775 5772 5770 5768 5766 5765 5762 5759 5756 5754
5686 5686 5694 5700 5697 5686 5718 5737 5739 5738 5742 5749 5752 5757 5759 5761 5763 5767 5770 5770 5771 5774 5776 5778 5780 5781 5782 5783 5782 5782 5782 5779 5776 5772 5770 5768 5766 5764 5762 5760 5758 5755 5752 5749
5684 5682 5688 5693 5689 5696 5712 5725 5731 5728 5730 5743 5746 5748 5753 5757 5757 5758 5763 5766 5767 5769 5771 5774 5776 5778 5777 5778 5778 5777 5776 5774 5770 5768 5766 5765 5763 5760 5758 5755 5752 5750 5747 5744
5675 5678 5681 5684 5681 5683 5706 5722 5730 5726 5717 5736 5741 5740 5744 5748 5745 5749 5756 5758 5760 5762 5765 5767 5770 5772 5771 5772 5774 5772 5770 5768 5766 5765 5763 5762 5760 5757 5753 5751 5748 5746 5742 5739
5663 5666 5671 5676 5679 5694 5707 5717 5718 5704 5713 5730 5735 5736 5738 5741 5744 5746 5749 5749 5751 5753 5756 5759 5761 5762 5764 5767 5767 5765 5764 5762 5762 5761 5759 5757 5755 5752 5749 5745 5743 5740 5737 5734
5662 5665 5665 5673 5674 5682 5701 5708 5704 5705 5716 5723 5726 5730 5732 5734 5736 5737 5737 5739 5742 5744 5748 5751 5752 5753 5756 5758 5759 5757 5755 5756 5756 5755 5752 5750 5748 5746 5743 5739 5736 5733 5731 5727
5659 5665 5673 5674 5676 5682 5693 5695 5698 5703 5707 5713 5717 5722 5725 5724 5725 5726 5727 5730 5733 5737 5740 5743 5744 5745 5747 5750 5751 5749 5748 5750 5749 5746 5743 5741 5740 5738 5735 5732 5729 5726 5723 5721
5650 5656 5660 5662 5670 5675 5681 5686 5690 5695 5699 5705 5711 5714 5717 5715 5716 5717 5719 5722 5724 5729 5732 5735 5737 5737 5737 5741 5742 5742 5742 5743 5741 5738 5735 5733 5731 5728 5725 5723 5721 5718 5716 5714
5642 5647 5651 5653 5661 5667 5671 5676 5681 5686 5693 5698 5702 5706 5707 5708 5708 5709 5710 5713 5716 5720 5724 5727 5728 5728 5729 5732 5733 5734 5734 5735 5734 5731 5728 5726 5723 5720 5715 5710 5706 5706 5701 5701
5638 5641 5645 5649 5655 5659 5662 5669 5674 5677 5681 5686 5691 5695 5699 5701 5701 5702 5704 5706 5709 5712 5715 5718 5720 5721 5722 5724 5724 5725 5726 5727 5725 5723 5720 5719 5716 5711 5707 5701 5694 5687 5687 5685